Regional Weather Roundup
Issued by NWS

Home | Current Version | Previous Version | Text Only | Print | Product List | Glossary Off
Versions: 1 2 3 4 5 6 7 8 9 10 11 12 13 14 15 16 17 18 19 20 21 22 23 24 25 26 27 28 29 30 31 32 33 34 35 36 37 38 39 40 41 42 43 44 45 46 47 48 49 50

000
ASUS43 KLSX 232307
RWRMO
STLRWRMO ALL

WEATHER SUMMARY FOR MISSOURI
NATIONAL WEATHER SERVICE SPRINGFIELD MO
600 PM CDT FRI JUN 23 2017

NOTE: "FAIR" INDICATES FEW OR NO CLOUDS BELOW 12,000 FEET WITH NO
       SIGNIFICANT WEATHER AND/OR OBSTRUCTIONS TO VISIBILITY.
       CURRENT SKY AND/OR WEATHER CONDITIONS ARE NOT AVAILABLE FOR
       CHILLICOTHE AND FARMINGTON.

MOZ001>031-035>038-043-044-053-054-240000-
...NORTHERN AND WESTERN MISSOURI...

CITY           SKY/WX    TMP DP  RH WIND       PRES   REMARKS
KANSAS CTY INT MOSUNNY   78  53  41 NW12      29.97S
KANSAS C DTWN  SUNNY     80  51  36 NW16      29.94S
LEE`S SUMMIT   SUNNY     79  53  40 N9        29.96R
ST JOSEPH      MOSUNNY   76  55  48 NW16      29.97S
CHILLICOTHE      N/A     77  54  44 N8        29.95R
KIRKSVILLE     SUNNY     76  54  46 N15       29.92R

$$
MOZ066>068-077>081-088>096-101>105-240000-
...SOUTHWEST MISSOURI...

CITY           SKY/WX    TMP DP  RH WIND       PRES   REMARKS
SPRINGFIELD    CLOUDY    80  58  46 NE15      29.93R
JOPLIN         SUNNY     84  60  44 N9        29.93R
BRANSON        PTSUNNY   72  70  94 NW6       29.94R

$$
MOZ032>034-039>042-045>050-055>058-069>072-240000-
...CENTRAL MISSOURI...

CITY           SKY/WX    TMP DP  RH WIND       PRES   REMARKS
COLUMBIA       MOSUNNY   82  55  39 N15G25    29.88R
JEFFERSON CITY MOSUNNY   84  53  34 NW14      29.86R
ROLLA          CLOUDY    77  61  57 NW6       29.88S
SEDALIA        SUNNY     82  56  40 NW15G24   29.92R
WHITEMAN AFB   SUNNY     81  48  31 N15       29.91R
WARRENSBURG    SUNNY     79  50  36 NW10G18   29.92F
OSAGE BEACH    MOSUNNY   81  57  43 VRB6      29.90R

$$
MOZ051-052-059>065-240000-
...EAST CENTRAL MISSOURI...

CITY           SKY/WX    TMP DP  RH WIND       PRES   REMARKS
ST LOUIS INTL  PTSUNNY   82  55  39 NW9       29.83R
SPIRIT OF STL  CLOUDY    81  58  45 NW7       29.83R
ST CHARLES     MOSUNNY   80  59  48 NW7       29.81S

$$
MOZ072>076-082>087-097>100-106>115-240000-
...SOUTH CENTRAL AND SOUTHEAST MISSOURI...

CITY           SKY/WX    TMP DP  RH WIND       PRES   REMARKS
CAPE GIRARDEAU CLOUDY    81  69  67 NW14      29.76R
FARMINGTON     CLOUDY    77  60  55 NW10      29.85R
POPLAR BLUFF   LGT RAIN  78  72  81 W7        29.79R
WEST PLAINS    CLOUDY    72  65  78 N6        29.91R

$$



USA.gov is the U.S. government's official web portal to all federal, state and local government web resources and services.